| time (UTC) | temp F | wind direction | speed MPH | gust MPH | rain 1hr in | rain 24hr in | rain mn in | humidity % | barometer mb |
| 20260905182509 | 88 | 230 | 6.0 | 10.0 | 0.00 | 0.00 | 0.00 | 67 | 1014.0 |
| 20260905182006 | 87 | 266 | 3.0 | 12.0 | 0.00 | 0.00 | 0.00 | 69 | 1014.1 |
| 20260905181526 | 87 | 295 | 7.0 | 12.0 | 0.00 | 0.00 | 0.00 | 69 | 1014.3 |
| 20260905181005 | 87 | 220 | 6.0 | 13.0 | 0.00 | 0.00 | 0.00 | 69 | 1014.4 |
| 20260905180505 | 86 | 222 | 9.0 | 13.0 | 0.00 | 0.00 | 0.00 | 70 | 1014.6 |
| 20260905180009 | 87 | 222 | 9.0 | 13.0 | 0.00 | 0.00 | 0.00 | 70 | 1014.6 |
| 20260905175505 | 86 | 297 | 5.0 | 17.0 | 0.00 | 0.00 | 0.00 | 71 | 1014.7 |
| 20260905175009 | 85 | 306 | 8.0 | 17.0 | 0.00 | 0.00 | 0.00 | 72 | 1014.6 |
| 20260905174528 | 84 | 320 | 6.0 | 13.0 | 0.00 | 0.00 | 0.00 | 74 | 1014.7 |
| 20260905174009 | 83 | 171 | 9.0 | 13.0 | 0.00 | 0.00 | 0.00 | 74 | 1014.8 |
| 20260905173513 | 83 | 244 | 6.0 | 13.0 | 0.00 | 0.00 | 0.00 | 74 | 1014.9 |
| 20260905173017 | 83 | 215 | 4.0 | 11.0 | 0.00 | 0.00 | 0.00 | 75 | 1014.8 |
| 20260905172506 | 83 | 229 | 7.0 | 13.0 | 0.00 | 0.00 | 0.00 | 75 | 1014.9 |
| 20260905172015 | 83 | 279 | 7.0 | 16.0 | 0.00 | 0.00 | 0.00 | 74 | 1015.0 |
| 20260905171514 | 83 | 232 | 8.0 | 16.0 | 0.00 | 0.00 | 0.00 | 73 | 1015.0 |
| 20260905171017 | 84 | 210 | 10.0 | 16.0 | 0.00 | 0.00 | 0.00 | 72 | 1015.0 |
| 20260905170510 | 85 | 196 | 5.0 | 15.0 | 0.00 | 0.00 | 0.00 | 71 | 1015.0 |
| 20260905170012 | 86 | 213 | 9.0 | 18.0 | 0.00 | 0.00 | 0.00 | 71 | 1015.2 |
| 20260905165506 | 86 | 265 | 12.0 | 18.0 | 0.00 | 0.00 | 0.00 | 71 | 1015.2 |
| 20260905165004 | 86 | 267 | 5.0 | 14.0 | 0.00 | 0.00 | 0.00 | 74 | 1015.1 |
| 20260905164513 | 86 | 248 | 9.0 | 14.0 | 0.00 | 0.00 | 0.00 | 71 | 1015.1 |
| 20260905164008 | 86 | 211 | 9.0 | 14.0 | 0.00 | 0.00 | 0.00 | 70 | 1015.1 |
| 20260905163507 | 87 | 229 | 7.0 | 15.0 | 0.00 | 0.00 | 0.00 | 70 | 1015.1 |
| 20260905163018 | 87 | 218 | 10.0 | 15.0 | 0.00 | 0.00 | 0.00 | 68 | 1015.3 |
| 20260905162513 | 88 | 238 | 8.0 | 12.0 | 0.00 | 0.00 | 0.00 | 69 | 1015.3 |
| 20260905162009 | 88 | 187 | 6.0 | 12.0 | 0.00 | 0.00 | 0.00 | 70 | 1015.2 |
| 20260905161527 | 87 | 227 | 6.0 | 12.0 | 0.00 | 0.00 | 0.00 | 70 | 1015.5 |
| 20260905161011 | 87 | 228 | 6.0 | 10.0 | 0.00 | 0.00 | 0.00 | 68 | 1015.4 |
| 20260905160506 | 87 | 269 | 6.0 | 9.0 | 0.00 | 0.00 | 0.00 | 69 | 1015.5 |
| 20260905160043 | 87 | 243 | 4.0 | 9.0 | 0.00 | 0.00 | 0.00 | 69 | 1015.5 |
| 20260905155509 | 87 | 235 | 3.0 | 4.0 | 0.00 | 0.00 | 0.00 | 66 | 1015.4 |
| 20260905155016 | 87 | 290 | 3.0 | 4.0 | 0.00 | 0.00 | 0.00 | 67 | 1015.3 |
| 20260905154526 | 87 | 162 | 0.0 | 3.0 | 0.00 | 0.00 | 0.00 | 67 | 1015.4 |
| 20260905154009 | 86 | 282 | 2.0 | 4.0 | 0.00 | 0.00 | 0.00 | 68 | 1015.2 |
| 20260905153506 | 86 | 190 | 2.0 | 4.0 | 0.00 | 0.00 | 0.00 | 69 | 1015.2 |
| 20260905153015 | 86 | 289 | 1.0 | 6.0 | 0.00 | 0.00 | 0.00 | 69 | 1015.1 |
| 20260905152508 | 86 | 284 | 3.0 | 6.0 | 0.00 | 0.00 | 0.00 | 70 | 1015.0 |
| 20260905152012 | 86 | 200 | 1.0 | 6.0 | 0.00 | 0.00 | 0.00 | 70 | 1015.0 |
| 20260905151521 | 86 | 285 | 3.0 | 6.0 | 0.00 | 0.00 | 0.00 | 70 | 1015.0 |
| 20260905151012 | 86 | 232 | 3.0 | 4.0 | 0.00 | 0.00 | 0.00 | 69 | 1015.0 |
| 20260905150512 | 86 | 296 | 2.0 | 3.0 | 0.00 | 0.00 | 0.00 | 71 | 1015.0 |
| 20260905150024 | 85 | 47 | 0.0 | 3.0 | 0.00 | 0.00 | 0.00 | 70 | 1015.0 |
| 20260905145516 | 85 | 47 | 1.0 | 3.0 | 0.00 | 0.00 | 0.00 | 71 | 1015.2 |
| 20260905145014 | 85 | 47 | 2.0 | 3.0 | 0.00 | 0.00 | 0.00 | 73 | 1015.2 |
| 20260905144537 | 84 | 47 | 0.0 | 4.0 | 0.00 | 0.00 | 0.00 | 73 | 1015.1 |
| 20260905144019 | 84 | 346 | 2.0 | 5.0 | 0.00 | 0.00 | 0.00 | 73 | 1015.0 |
| 20260905143511 | 84 | 38 | 2.0 | 5.0 | 0.00 | 0.00 | 0.00 | 73 | 1014.9 |
| 20260905143037 | 84 | 67 | 2.0 | 7.0 | 0.00 | 0.00 | 0.00 | 73 | 1015.0 |
| 20260905142510 | 84 | 28 | 3.0 | 7.0 | 0.00 | 0.00 | 0.00 | 72 | 1015.0 |
| 20260905142010 | 84 | 46 | 1.0 | 7.0 | 0.00 | 0.00 | 0.00 | 73 | 1014.9 |
| 20260905141528 | 84 | 336 | 3.0 | 9.0 | 0.00 | 0.00 | 0.00 | 73 | 1015.0 |
| 20260905141014 | 84 | 63 | 5.0 | 10.0 | 0.00 | 0.00 | 0.00 | 73 | 1014.9 |
| 20260905140510 | 83 | 65 | 5.0 | 9.0 | 0.00 | 0.00 | 0.00 | 74 | 1015.0 |
| 20260905140023 | 82 | 17 | 4.0 | 7.0 | 0.00 | 0.00 | 0.00 | 78 | 1015.1 |
| 20260905135512 | 82 | 40 | 3.0 | 5.0 | 0.00 | 0.00 | 0.00 | 78 | 1015.1 |
| 20260905135018 | 81 | 57 | 3.0 | 4.0 | 0.00 | 0.00 | 0.00 | 78 | 1015.1 |
| 20260905134526 | 81 | 74 | 3.0 | 5.0 | 0.00 | 0.00 | 0.00 | 78 | 1015.1 |
| 20260905134013 | 81 | 360 | 2.0 | 5.0 | 0.00 | 0.00 | 0.00 | 79 | 1015.0 |
| 20260905133517 | 81 | 28 | 3.0 | 5.0 | 0.00 | 0.00 | 0.00 | 79 | 1015.1 |
| 20260905133040 | 81 | 34 | 2.0 | 5.0 | 0.00 | 0.00 | 0.00 | 79 | 1015.1 |
| 20260905132520 | 81 | 19 | 2.0 | 5.0 | 0.00 | 0.00 | 0.00 | 79 | 1015.1 |
| 20260905132018 | 80 | 69 | 2.0 | 5.0 | 0.00 | 0.00 | 0.00 | 79 | 1015.2 |
| 20260905131536 | 80 | 28 | 2.0 | 6.0 | 0.00 | 0.00 | 0.00 | 80 | 1015.3 |
| 20260905131010 | 79 | 43 | 2.0 | 6.0 | 0.00 | 0.00 | 0.00 | 81 | 1015.4 |
| 20260905130508 | 79 | 9 | 3.0 | 5.0 | 0.00 | 0.00 | 0.00 | 81 | 1015.4 |
| 20260905130021 | 78 | 30 | 1.0 | 6.0 | 0.00 | 0.00 | 0.00 | 82 | 1015.3 |
| 20260905125513 | 78 | 9 | 4.0 | 7.0 | 0.00 | 0.00 | 0.00 | 82 | 1015.3 |
| 20260905125014 | 78 | 47 | 3.0 | 9.0 | 0.00 | 0.00 | 0.00 | 83 | 1015.3 |
| 20260905124526 | 78 | 19 | 3.0 | 9.0 | 0.00 | 0.00 | 0.00 | 83 | 1015.3 |
| 20260905124016 | 78 | 14 | 3.0 | 9.0 | 0.00 | 0.00 | 0.00 | 83 | 1015.4 |
| 20260905123515 | 77 | 319 | 4.0 | 8.0 | 0.00 | 0.00 | 0.00 | 84 | 1015.3 |
| 20260905123031 | 77 | 10 | 2.0 | 7.0 | 0.00 | 0.00 | 0.00 | 84 | 1015.2 |
| 20260905122517 | 77 | 9 | 4.0 | 7.0 | 0.00 | 0.00 | 0.00 | 84 | 1015.2 |
| 20260905122013 | 77 | 9 | 2.0 | 5.0 | 0.00 | 0.00 | 0.00 | 85 | 1015.1 |
| 20260905121533 | 76 | 27 | 2.0 | 5.0 | 0.00 | 0.00 | 0.00 | 85 | 1015.1 |
| 20260905121005 | 76 | 360 | 2.0 | 5.0 | 0.00 | 0.00 | 0.00 | 86 | 1015.1 |
| 20260905120506 | 75 | 14 | 2.0 | 5.0 | 0.00 | 0.00 | 0.00 | 87 | 1014.9 |
| 20260905120004 | 75 | 348 | 2.0 | 5.0 | 0.00 | 0.00 | 0.00 | 87 | 1015.0 |
| 20260905115503 | 75 | 58 | 2.0 | 5.0 | 0.00 | 0.00 | 0.00 | 87 | 1015.0 |
| 20260905115007 | 75 | 11 | 2.0 | 4.0 | 0.00 | 0.00 | 0.00 | 87 | 1015.0 |
| 20260905114504 | 75 | 28 | 2.0 | 5.0 | 0.00 | 0.00 | 0.00 | 87 | 1014.8 |
| 20260905114004 | 75 | 9 | 4.0 | 5.0 | 0.00 | 0.00 | 0.00 | 87 | 1014.9 |
| 20260905113504 | 75 | 9 | 3.0 | 6.0 | 0.00 | 0.00 | 0.00 | 87 | 1014.9 |
| 20260905113008 | 75 | 26 | 2.0 | 6.0 | 0.00 | 0.00 | 0.00 | 87 | 1014.8 |
| 20260905112504 | 75 | 32 | 2.0 | 6.0 | 0.00 | 0.00 | 0.00 | 87 | 1014.7 |
| 20260905112008 | 75 | 15 | 3.0 | 8.0 | 0.00 | 0.00 | 0.00 | 87 | 1014.8 |
| 20260905111503 | 75 | 11 | 2.0 | 8.0 | 0.00 | 0.00 | 0.00 | 87 | 1014.8 |
| 20260905111007 | 75 | 349 | 3.0 | 8.0 | 0.00 | 0.00 | 0.00 | 87 | 1014.6 |
| 20260905110504 | 75 | 360 | 3.0 | 7.0 | 0.00 | 0.00 | 0.00 | 88 | 1014.7 |
| 20260905110005 | 75 | 14 | 3.0 | 7.0 | 0.00 | 0.00 | 0.00 | 88 | 1014.7 |
| 20260905105509 | 75 | 331 | 3.0 | 5.0 | 0.00 | 0.00 | 0.00 | 87 | 1014.7 |
| 20260905105006 | 75 | 360 | 2.0 | 5.0 | 0.00 | 0.00 | 0.00 | 87 | 1014.7 |
| 20260905104503 | 75 | 17 | 2.0 | 5.0 | 0.00 | 0.00 | 0.00 | 87 | 1014.7 |
| 20260905104002 | 75 | 348 | 2.0 | 6.0 | 0.00 | 0.00 | 0.00 | 87 | 1014.7 |
| 20260905103502 | 75 | 34 | 2.0 | 6.0 | 0.00 | 0.00 | 0.00 | 87 | 1014.6 |
| 20260905103005 | 75 | 341 | 3.0 | 7.0 | 0.00 | 0.00 | 0.00 | 88 | 1014.7 |
| 20260905102504 | 75 | 11 | 3.0 | 7.0 | 0.00 | 0.00 | 0.00 | 87 | 1014.7 |
| 20260905102002 | 75 | 360 | 3.0 | 7.0 | 0.00 | 0.00 | 0.00 | 87 | 1014.5 |
| 20260905101514 | 75 | 10 | 4.0 | 6.0 | 0.00 | 0.00 | 0.00 | 87 | 1014.4 |
| 20260905101004 | 75 | 336 | 3.0 | 7.0 | 0.00 | 0.00 | 0.00 | 87 | 1014.5 |
| 20260905100508 | 75 | 342 | 3.0 | 7.0 | 0.00 | 0.00 | 0.00 | 87 | 1014.7 |
| 20260905100015 | 75 | 9 | 3.0 | 7.0 | 0.00 | 0.00 | 0.00 | 87 | 1014.6 |
| 20260905095503 | 75 | 321 | 2.0 | 7.0 | 0.00 | 0.00 | 0.00 | 87 | 1014.5 |
| 20260905095011 | 75 | 346 | 3.0 | 7.0 | 0.00 | 0.00 | 0.00 | 87 | 1014.5 |
| 20260905094512 | 75 | 9 | 3.0 | 7.0 | 0.00 | 0.00 | 0.00 | 87 | 1014.6 |
| 20260905094002 | 75 | 344 | 3.0 | 7.0 | 0.00 | 0.00 | 0.00 | 87 | 1014.6 |
| 20260905093502 | 75 | 331 | 2.0 | 8.0 | 0.00 | 0.00 | 0.00 | 87 | 1014.5 |
| 20260905093003 | 74 | 346 | 4.0 | 8.0 | 0.00 | 0.00 | 0.00 | 88 | 1014.4 |
| 20260905092502 | 74 | 328 | 3.0 | 8.0 | 0.00 | 0.00 | 0.00 | 88 | 1014.4 |
| 20260905092003 | 74 | 331 | 3.0 | 9.0 | 0.00 | 0.00 | 0.00 | 88 | 1014.5 |
| 20260905091507 | 74 | 326 | 4.0 | 8.0 | 0.00 | 0.00 | 0.00 | 89 | 1014.4 |
| 20260905091007 | 74 | 332 | 3.0 | 5.0 | 0.00 | 0.00 | 0.00 | 89 | 1014.5 |
| 20260905090507 | 74 | 337 | 2.0 | 6.0 | 0.00 | 0.00 | 0.00 | 89 | 1014.4 |
| 20260905090007 | 74 | 332 | 3.0 | 6.0 | 0.00 | 0.00 | 0.00 | 89 | 1014.3 |
| 20260905085511 | 74 | 320 | 3.0 | 5.0 | 0.00 | 0.00 | 0.00 | 89 | 1014.3 |
| 20260905085008 | 74 | 295 | 2.0 | 5.0 | 0.00 | 0.00 | 0.00 | 89 | 1014.3 |
| 20260905084518 | 74 | 298 | 2.0 | 5.0 | 0.00 | 0.00 | 0.00 | 89 | 1014.3 |
| 20260905084009 | 74 | 360 | 2.0 | 5.0 | 0.00 | 0.00 | 0.00 | 89 | 1014.3 |
| 20260905083505 | 74 | 309 | 2.0 | 4.0 | 0.00 | 0.00 | 0.00 | 89 | 1014.4 |
| 20260905083023 | 74 | 322 | 1.0 | 5.0 | 0.00 | 0.00 | 0.00 | 89 | 1014.5 |
| 20260905082504 | 74 | 334 | 2.0 | 5.0 | 0.00 | 0.00 | 0.00 | 89 | 1014.4 |
| 20260905082003 | 74 | 329 | 2.0 | 4.0 | 0.00 | 0.00 | 0.00 | 89 | 1014.3 |
| 20260905081507 | 74 | 330 | 2.0 | 6.0 | 0.00 | 0.00 | 0.00 | 89 | 1014.3 |
| 20260905081003 | 74 | 288 | 2.0 | 6.0 | 0.00 | 0.00 | 0.00 | 89 | 1014.3 |
| 20260905080504 | 74 | 290 | 2.0 | 4.0 | 0.00 | 0.00 | 0.00 | 89 | 1014.2 |
| 20260905080015 | 74 | 296 | 2.0 | 5.0 | 0.00 | 0.00 | 0.00 | 89 | 1014.3 |
| 20260905075503 | 74 | 275 | 2.0 | 5.0 | 0.00 | 0.00 | 0.00 | 89 | 1014.2 |
| 20260905075008 | 74 | 294 | 2.0 | 6.0 | 0.00 | 0.00 | 0.00 | 89 | 1014.2 |
| 20260905074517 | 74 | 273 | 1.0 | 6.0 | 0.00 | 0.00 | 0.00 | 89 | 1014.1 |
| 20260905074005 | 73 | 271 | 3.0 | 6.0 | 0.00 | 0.00 | 0.00 | 90 | 1014.1 |
| 20260905073511 | 73 | 277 | 1.0 | 4.0 | 0.00 | 0.00 | 0.00 | 89 | 1014.2 |
| 20260905073012 | 73 | 240 | 2.0 | 4.0 | 0.00 | 0.00 | 0.00 | 88 | 1014.3 |
| 20260905072513 | 73 | 261 | 1.0 | 3.0 | 0.00 | 0.00 | 0.00 | 88 | 1014.3 |
| 20260905072008 | 74 | 250 | 0.0 | 2.0 | 0.00 | 0.00 | 0.00 | 87 | 1014.3 |
| 20260905071511 | 74 | 259 | 0.0 | 6.0 | 0.00 | 0.00 | 0.00 | 87 | 1014.2 |
| 20260905071012 | 74 | 243 | 1.0 | 6.0 | 0.00 | 0.00 | 0.00 | 88 | 1014.2 |
| 20260905070502 | 74 | 249 | 2.0 | 4.0 | 0.00 | 0.00 | 0.00 | 88 | 1014.3 |
| 20260905070008 | 74 | 284 | 2.0 | 4.0 | 0.00 | 0.00 | 0.00 | 88 | 1014.3 |
| 20260905065503 | 74 | 315 | 2.0 | 4.0 | 0.00 | 0.00 | 0.00 | 88 | 1014.4 |
| 20260905065007 | 74 | 315 | 2.0 | 3.0 | 0.00 | 0.00 | 0.00 | 87 | 1014.4 |
| 20260905064515 | 74 | 260 | 1.0 | 4.0 | 0.00 | 0.00 | 0.00 | 87 | 1014.4 |
| 20260905064010 | 74 | 252 | 1.0 | 4.0 | 0.00 | 0.00 | 0.00 | 87 | 1014.4 |
| 20260905063505 | 74 | 224 | 1.0 | 4.0 | 0.00 | 0.00 | 0.00 | 87 | 1014.3 |
| 20260905063019 | 74 | 244 | 2.0 | 4.0 | 0.00 | 0.00 | 0.00 | 88 | 1014.4 |
| 20260905062516 | 74 | 255 | 2.0 | 3.0 | 0.00 | 0.00 | 0.00 | 88 | 1014.4 |
| 20260905062004 | 74 | 275 | 1.0 | 2.0 | 0.00 | 0.00 | 0.00 | 87 | 1014.3 |
| 20260905061524 | 74 | 267 | 1.0 | 2.0 | 0.00 | 0.00 | 0.00 | 87 | 1014.4 |
| 20260905061008 | 74 | 284 | 1.0 | 2.0 | 0.00 | 0.00 | 0.00 | 87 | 1014.5 |
| 20260905060513 | 74 | 205 | 0.0 | 3.0 | 0.00 | 0.00 | 0.00 | 86 | 1014.6 |
| 20260905060023 | 74 | 252 | 1.0 | 3.0 | 0.00 | 0.00 | 0.00 | 86 | 1014.5 |
| 20260905055503 | 75 | 249 | 0.0 | 3.0 | 0.00 | 0.00 | 0.00 | 86 | 1014.5 |
| 20260905055004 | 75 | 242 | 2.0 | 4.0 | 0.00 | 0.00 | 0.00 | 85 | 1014.6 |
| 20260905054513 | 75 | 248 | 2.0 | 6.0 | 0.00 | 0.00 | 0.00 | 85 | 1014.6 |
| 20260905054009 | 75 | 263 | 2.0 | 6.0 | 0.00 | 0.00 | 0.00 | 84 | 1014.7 |
| 20260905053507 | 76 | 265 | 2.0 | 4.0 | 0.00 | 0.00 | 0.00 | 83 | 1014.8 |
| 20260905053014 | 76 | 273 | 1.0 | 4.0 | 0.00 | 0.00 | 0.00 | 83 | 1014.9 |
| 20260905052510 | 76 | 265 | 2.0 | 4.0 | 0.00 | 0.00 | 0.00 | 83 | 1014.8 |
| 20260905052010 | 76 | 263 | 2.0 | 7.0 | 0.00 | 0.00 | 0.00 | 83 | 1014.8 |
| 20260905051511 | 76 | 249 | 3.0 | 7.0 | 0.00 | 0.00 | 0.00 | 83 | 1014.7 |
| 20260905051014 | 76 | 256 | 2.0 | 6.0 | 0.00 | 0.00 | 0.00 | 83 | 1014.6 |
| 20260905050512 | 76 | 291 | 2.0 | 6.0 | 0.00 | 0.00 | 0.00 | 83 | 1014.6 |
| 20260905050036 | 76 | 261 | 3.0 | 6.0 | 0.00 | 0.00 | 0.00 | 82 | 1014.7 |
| 20260905045514 | 76 | 275 | 2.0 | 6.0 | 0.00 | 0.00 | 0.00 | 83 | 1014.8 |
| 20260905045008 | 76 | 276 | 2.0 | 6.0 | 0.00 | 0.00 | 0.00 | 83 | 1014.8 |
| 20260905044539 | 76 | 250 | 2.0 | 3.0 | 0.00 | 0.00 | 0.00 | 83 | 1014.7 |
| 20260905044011 | 76 | 266 | 2.0 | 3.0 | 0.00 | 0.00 | 0.00 | 82 | 1014.7 |
| 20260905043507 | 77 | 262 | 2.0 | 4.0 | 0.00 | 0.00 | 0.00 | 81 | 1014.6 |
| 20260905043015 | 77 | 261 | 1.0 | 4.0 | 0.00 | 0.00 | 0.00 | 81 | 1014.6 |
| 20260905042513 | 77 | 271 | 2.0 | 4.0 | 0.00 | 0.00 | 0.00 | 81 | 1014.6 |
| 20260905042008 | 77 | 270 | 2.0 | 5.0 | 0.00 | 0.00 | 0.00 | 80 | 1014.6 |
| 20260905041521 | 77 | 267 | 3.0 | 5.0 | 0.00 | 0.00 | 0.00 | 81 | 1014.7 |
| 20260905041003 | 77 | 251 | 2.0 | 4.0 | 0.00 | 0.00 | 0.00 | 80 | 1014.8 |
| 20260905040502 | 77 | 254 | 2.0 | 4.0 | 0.00 | 0.00 | 0.00 | 80 | 1014.8 |
| 20260905040005 | 77 | 281 | 2.0 | 4.0 | 0.00 | 0.00 | 0.00 | 80 | 1014.8 |
| 20260905035504 | 77 | 259 | 2.0 | 4.0 | 0.00 | 0.00 | 0.00 | 80 | 1014.8 |
| 20260905035004 | 77 | 270 | 2.0 | 3.0 | 0.00 | 0.00 | 0.00 | 80 | 1014.8 |
| 20260905034504 | 77 | 238 | 1.0 | 3.0 | 0.00 | 0.00 | 0.00 | 80 | 1014.9 |
| 20260905034004 | 77 | 265 | 2.0 | 3.0 | 0.00 | 0.00 | 0.00 | 80 | 1015.0 |
| 20260905033503 | 76 | 250 | 2.0 | 3.0 | 0.00 | 0.00 | 0.00 | 80 | 1015.0 |
| 20260905033025 | 76 | 261 | 1.0 | 3.0 | 0.00 | 0.00 | 0.00 | 80 | 1015.0 |
| 20260905032502 | 76 | 261 | 2.0 | 3.0 | 0.00 | 0.00 | 0.00 | 80 | 1015.1 |
| 20260905032003 | 76 | 273 | 2.0 | 3.0 | 0.00 | 0.00 | 0.00 | 81 | 1015.1 |
| 20260905031522 | 76 | 262 | 1.0 | 4.0 | 0.00 | 0.00 | 0.00 | 82 | 1015.1 |
| 20260905031004 | 76 | 252 | 2.0 | 6.0 | 0.00 | 0.00 | 0.00 | 82 | 1015.2 |
| 20260905030503 | 76 | 249 | 3.0 | 6.0 | 0.00 | 0.00 | 0.00 | 83 | 1015.1 |
| 20260905030006 | 76 | 179 | 0.0 | 0.0 | 0.00 | 0.00 | 0.00 | 81 | 1014.9 |
| 20260905025506 | 76 | 179 | 0.0 | 0.0 | 0.00 | 0.00 | 0.00 | 81 | 1014.9 |
| 20260905025004 | 76 | 179 | 0.0 | 0.0 | 0.00 | 0.00 | 0.00 | 81 | 1014.9 |
| 20260905024505 | 76 | 179 | 0.0 | 0.0 | 0.00 | 0.00 | 0.00 | 81 | 1015.1 |
| 20260905024006 | 76 | 179 | 0.0 | 0.0 | 0.00 | 0.00 | 0.00 | 80 | 1015.2 |
| 20260905023504 | 76 | 179 | 0.0 | 0.0 | 0.00 | 0.00 | 0.00 | 80 | 1015.2 |
| 20260905023014 | 76 | 179 | 0.0 | 2.0 | 0.00 | 0.00 | 0.00 | 80 | 1015.3 |
| 20260905022503 | 76 | 179 | 0.0 | 1.0 | 0.00 | 0.00 | 0.00 | 79 | 1015.2 |
| 20260905022004 | 76 | 179 | 0.0 | 1.0 | 0.00 | 0.00 | 0.00 | 79 | 1015.2 |
| 20260905021503 | 76 | 179 | 0.0 | 2.0 | 0.00 | 0.00 | 0.00 | 79 | 1015.1 |
| 20260905021008 | 76 | 179 | 0.0 | 2.0 | 0.00 | 0.00 | 0.00 | 78 | 1015.1 |
| 20260905020507 | 77 | 179 | 0.0 | 2.0 | 0.00 | 0.00 | 0.00 | 77 | 1015.1 |
| 20260905020008 | 77 | 179 | 0.0 | 1.0 | 0.00 | 0.00 | 0.00 | 77 | 1015.0 |
| 20260905015509 | 77 | 180 | 0.0 | 0.0 | 0.00 | 0.00 | 0.00 | 77 | 1014.9 |
| 20260905015003 | 77 | 179 | 0.0 | 0.0 | 0.00 | 0.00 | 0.00 | 76 | 1014.6 |
| 20260905014504 | 77 | 179 | 0.0 | 0.0 | 0.00 | 0.00 | 0.00 | 75 | 1014.8 |
| 20260905014003 | 78 | 179 | 0.0 | 0.0 | 0.00 | 0.00 | 0.00 | 74 | 1014.8 |
| 20260905013507 | 78 | 179 | 0.0 | 2.0 | 0.00 | 0.00 | 0.00 | 73 | 1014.7 |
| 20260905013004 | 78 | 179 | 0.0 | 2.0 | 0.00 | 0.00 | 0.00 | 72 | 1014.7 |
| 20260905012503 | 78 | 179 | 0.0 | 2.0 | 0.00 | 0.00 | 0.00 | 71 | 1014.7 |
| 20260905012004 | 78 | 179 | 1.0 | 2.0 | 0.00 | 0.00 | 0.00 | 71 | 1014.6 |
| 20260905011510 | 79 | 179 | 1.0 | 2.0 | 0.00 | 0.00 | 0.00 | 70 | 1014.6 |
| 20260905011004 | 79 | 179 | 1.0 | 2.0 | 0.00 | 0.00 | 0.00 | 69 | 1014.5 |
| 20260905010509 | 79 | 179 | 0.0 | 2.0 | 0.00 | 0.00 | 0.00 | 68 | 1014.6 |
| 20260905010013 | 79 | 179 | 0.0 | 2.0 | 0.00 | 0.00 | 0.00 | 68 | 1014.6 |
| 20260905005504 | 80 | 149 | 1.0 | 4.0 | 0.00 | 0.00 | 0.00 | 68 | 1014.5 |
| 20260905005011 | 80 | 174 | 0.0 | 4.0 | 0.00 | 0.00 | 0.00 | 67 | 1014.5 |
| 20260905004516 | 81 | 200 | 1.0 | 2.0 | 0.00 | 0.00 | 0.00 | 66 | 1014.4 |
| 20260905004004 | 81 | 113 | 0.0 | 3.0 | 0.00 | 0.00 | 0.00 | 65 | 1014.4 |
| 20260905003512 | 82 | 113 | 1.0 | 3.0 | 0.00 | 0.00 | 0.00 | 64 | 1014.4 |
| 20260905003004 | 83 | 111 | 1.0 | 3.0 | 0.00 | 0.00 | 0.00 | 63 | 1014.4 |
| 20260905002504 | 83 | 97 | 2.0 | 4.0 | 0.00 | 0.00 | 0.00 | 62 | 1014.5 |
| 20260905002005 | 84 | 96 | 2.0 | 4.0 | 0.00 | 0.00 | 0.00 | 60 | 1014.3 |
| 20260905001517 | 85 | 91 | 2.0 | 4.0 | 0.00 | 0.00 | 0.00 | 59 | 1014.3 |
| 20260905001004 | 86 | 109 | 2.0 | 3.0 | 0.00 | 0.00 | 0.00 | 57 | 1014.3 |
| 20260905000509 | 87 | 99 | 1.0 | 3.0 | 0.00 | 0.00 | 0.00 | 55 | 1014.3 |
| 20260905000010 | 88 | 96 | 1.0 | 3.0 | 0.00 | 0.00 | 0.00 | 54 | 1014.4 |
| 20260904235508 | 89 | 96 | 2.0 | 3.0 | 0.00 | 0.00 | 0.00 | 50 | 1014.4 |
| 20260904235005 | 89 | 100 | 2.0 | 6.0 | 0.00 | 0.00 | 0.00 | 50 | 1014.4 |
| 20260904234531 | 90 | 114 | 2.0 | 5.0 | 0.00 | 0.00 | 0.00 | 49 | 1014.4 |
| 20260904234011 | 91 | 100 | 2.0 | 5.0 | 0.00 | 0.00 | 0.00 | 46 | 1014.3 |
| 20260904233506 | 91 | 148 | 2.0 | 7.0 | 0.00 | 0.00 | 0.00 | 45 | 1014.2 |
| 20260904233026 | 92 | 128 | 4.0 | 7.0 | 0.00 | 0.00 | 0.00 | 44 | 1014.3 |
| 20260904232509 | 92 | 138 | 2.0 | 4.0 | 0.00 | 0.00 | 0.00 | 43 | 1014.3 |
| 20260904232002 | 92 | 115 | 2.0 | 8.0 | 0.00 | 0.00 | 0.00 | 43 | 1014.1 |
| 20260904231508 | 93 | 110 | 3.0 | 11.0 | 0.00 | 0.00 | 0.00 | 42 | 1014.2 |
| 20260904231006 | 93 | 138 | 4.0 | 11.0 | 0.00 | 0.00 | 0.00 | 41 | 1014.0 |
| 20260904230506 | 94 | 130 | 5.0 | 11.0 | 0.00 | 0.00 | 0.00 | 42 | 1013.9 |
| 20260904230011 | 94 | 100 | 3.0 | 8.0 | 0.00 | 0.00 | 0.00 | 43 | 1013.9 |
| 20260904225503 | 94 | 109 | 3.0 | 9.0 | 0.00 | 0.00 | 0.00 | 44 | 1013.8 |
| 20260904225009 | 94 | 89 | 2.0 | 11.0 | 0.00 | 0.00 | 0.00 | 43 | 1013.7 |
| 20260904224516 | 94 | 90 | 7.0 | 11.0 | 0.00 | 0.00 | 0.00 | 42 | 1013.8 |
| 20260904224003 | 94 | 123 | 4.0 | 11.0 | 0.00 | 0.00 | 0.00 | 43 | 1013.8 |
| 20260904223513 | 94 | 69 | 4.0 | 11.0 | 0.00 | 0.00 | 0.00 | 43 | 1013.7 |
| 20260904223014 | 95 | 117 | 6.0 | 11.0 | 0.00 | 0.00 | 0.00 | 42 | 1013.7 |
| 20260904222511 | 95 | 137 | 5.0 | 11.0 | 0.00 | 0.00 | 0.00 | 43 | 1013.7 |
| 20260904222012 | 95 | 109 | 4.0 | 11.0 | 0.00 | 0.00 | 0.00 | 42 | 1013.6 |
| 20260904221510 | 95 | 134 | 3.0 | 14.0 | 0.00 | 0.00 | 0.00 | 42 | 1013.5 |
| 20260904221014 | 95 | 106 | 8.0 | 14.0 | 0.00 | 0.00 | 0.00 | 43 | 1013.5 |
| 20260904220509 | 95 | 119 | 3.0 | 11.0 | 0.00 | 0.00 | 0.00 | 43 | 1013.5 |
| 20260904220017 | 95 | 99 | 6.0 | 13.0 | 0.00 | 0.00 | 0.00 | 42 | 1013.4 |
| 20260904215507 | 95 | 87 | 6.0 | 13.0 | 0.00 | 0.00 | 0.00 | 43 | 1013.4 |
| 20260904215008 | 95 | 174 | 8.0 | 11.0 | 0.00 | 0.00 | 0.00 | 41 | 1013.3 |
| 20260904214502 | 95 | 136 | 4.0 | 17.0 | 0.00 | 0.00 | 0.00 | 43 | 1013.3 |
| 20260904214002 | 95 | 36 | 5.0 | 17.0 | 0.00 | 0.00 | 0.00 | 42 | 1013.4 |
| 20260904213504 | 96 | 134 | 4.0 | 12.0 | 0.00 | 0.00 | 0.00 | 41 | 1013.6 |
| 20260904213009 | 96 | 83 | 7.0 | 12.0 | 0.00 | 0.00 | 0.00 | 40 | 1013.5 |
| 20260904212504 | 96 | 173 | 5.0 | 11.0 | 0.00 | 0.00 | 0.00 | 40 | 1013.5 |
| 20260904212003 | 96 | 103 | 3.0 | 13.0 | 0.00 | 0.01 | 0.00 | 41 | 1013.5 |
| 20260904211503 | 96 | 97 | 8.0 | 13.0 | 0.00 | 0.06 | 0.00 | 40 | 1013.6 |
| 20260904211004 | 96 | 51 | 5.0 | 13.0 | 0.00 | 0.14 | 0.00 | 39 | 1013.6 |
| 20260904210507 | 97 | 110 | 4.0 | 9.0 | 0.00 | 0.14 | 0.00 | 39 | 1013.6 |
| 20260904210003 | 97 | 24 | 2.0 | 11.0 | 0.00 | 0.14 | 0.00 | 39 | 1013.5 |
| 20260904205506 | 96 | 51 | 3.0 | 12.0 | 0.00 | 0.14 | 0.00 | 38 | 1013.6 |
| 20260904205003 | 96 | 104 | 7.0 | 12.0 | 0.00 | 0.14 | 0.00 | 39 | 1013.5 |
| 20260904204503 | 96 | 121 | 3.0 | 9.0 | 0.00 | 0.14 | 0.00 | 39 | 1013.6 |
| 20260904204005 | 95 | 141 | 6.0 | 14.0 | 0.00 | 0.14 | 0.00 | 40 | 1013.6 |
| 20260904203507 | 95 | 90 | 7.0 | 14.0 | 0.00 | 0.14 | 0.00 | 39 | 1013.7 |
| 20260904203017 | 96 | 109 | 9.0 | 14.0 | 0.00 | 0.14 | 0.00 | 38 | 1013.8 |
| 20260904202501 | 96 | 150 | 10.0 | 13.0 | 0.00 | 0.14 | 0.00 | 39 | 1013.8 |
| 20260904202002 | 96 | 65 | 3.0 | 12.0 | 0.00 | 0.14 | 0.00 | 40 | 1013.8 |
| 20260904201506 | 96 | 82 | 8.0 | 13.0 | 0.00 | 0.14 | 0.00 | 40 | 1014.0 |
| 20260904201006 | 96 | 97 | 8.0 | 13.0 | 0.00 | 0.14 | 0.00 | 40 | 1014.1 |
| 20260904200503 | 96 | 76 | 6.0 | 12.0 | 0.00 | 0.14 | 0.00 | 41 | 1014.1 |
| 20260904200005 | 96 | 152 | 8.0 | 12.0 | 0.00 | 0.14 | 0.00 | 40 | 1014.2 |
| 20260904195504 | 95 | 179 | 6.0 | 14.0 | 0.00 | 0.14 | 0.00 | 41 | 1014.2 |
| 20260904195004 | 95 | 75 | 7.0 | 14.0 | 0.00 | 0.14 | 0.00 | 39 | 1014.4 |
| 20260904194523 | 96 | 101 | 7.0 | 14.0 | 0.00 | 0.14 | 0.00 | 40 | 1014.5 |
| 20260904194003 | 96 | 105 | 7.0 | 14.0 | 0.00 | 0.14 | 0.00 | 39 | 1014.6 |
| 20260904193510 | 95 | 77 | 5.0 | 15.0 | 0.00 | 0.14 | 0.00 | 41 | 1014.6 |
| 20260904193006 | 96 | 38 | 10.0 | 15.0 | 0.00 | 0.14 | 0.00 | 38 | 1014.7 |
| 20260904192506 | 96 | 97 | 5.0 | 13.0 | 0.00 | 0.14 | 0.00 | 40 | 1014.8 |
| 20260904192005 | 96 | 111 | 5.0 | 14.0 | 0.00 | 0.14 | 0.00 | 43 | 1014.8 |
| 20260904191504 | 95 | 47 | 1.0 | 14.0 | 0.00 | 0.14 | 0.00 | 41 | 1014.9 |
| 20260904191002 | 95 | 119 | 9.0 | 14.0 | 0.00 | 0.14 | 0.00 | 40 | 1015.1 |
| 20260904190503 | 95 | 107 | 8.0 | 13.0 | 0.00 | 0.14 | 0.00 | 41 | 1015.2 |
| 20260904190003 | 95 | 172 | 3.0 | 10.0 | 0.00 | 0.14 | 0.00 | 41 | 1015.3 |
| 20260904185504 | 95 | 105 | 7.0 | 13.0 | 0.00 | 0.14 | 0.00 | 41 | 1015.4 |
| 20260904185004 | 95 | 137 | 6.0 | 14.0 | 0.00 | 0.14 | 0.00 | 42 | 1015.5 |
| 20260904184505 | 95 | 135 | 6.0 | 17.0 | 0.00 | 0.14 | 0.00 | 43 | 1015.5 |
| 20260904184004 | 95 | 145 | 7.0 | 17.0 | 0.00 | 0.14 | 0.00 | 42 | 1015.4 |
| 20260904183503 | 95 | 100 | 6.0 | 14.0 | 0.00 | 0.14 | 0.00 | 43 | 1015.5 |
| 20260904183008 | 94 | 103 | 8.0 | 14.0 | 0.00 | 0.14 | 0.00 | 43 | 1015.5 |